Location: Lane
(33.5226°N, 79.8788°W)
Time: 11:22:49
(UTC+00:00)

A-11 Canister half - Visible Passes

Search period start: 05 October 2022 00:00
Search period end: 15 October 2022 00:00
Orbit: 1524 x 1684 km, 47.3° (Epoch: 04 October)

Date Brightness Start Highest point End Pass type
(mag) Time Alt. Az. Time Alt. Az. Time Alt. Az.
05 Oct 9.3 01:03:51 10° NW 01:13:04 53° NNE 01:15:23 45° ENE visible
05 Oct 10.2 03:08:57 10° WNW 03:13:41 33° WNW 03:13:41 33° WNW visible
06 Oct 9.3 00:42:10 10° NW 00:51:19 51° NNE 00:54:51 37° ENE visible
06 Oct 9.8 02:47:15 10° WNW 02:53:08 42° WNW 02:53:08 42° WNW visible
07 Oct 9.4 00:20:29 10° NW 00:29:33 49° NNE 00:34:21 29° E visible
07 Oct 9.5 02:25:33 10° WNW 02:32:39 53° W 02:32:39 53° W visible
07 Oct 9.4 23:58:47 10° NW 00:07:48 48° NNE 00:13:55 22° E visible
08 Oct 9.1 02:03:50 10° WNW 02:12:13 67° W 02:12:13 67° W visible
08 Oct 9.5 23:37:05 10° NW 23:46:03 46° NNE 23:53:33 16° E visible
09 Oct 8.9 01:42:09 10° NW 01:51:38 75° SW 01:51:51 75° SSW visible
09 Oct 11.1 03:49:23 10° W 03:50:10 12° W 03:50:10 12° W visible
09 Oct 9.5 23:15:23 10° NW 23:24:17 45° NNE 23:33:15 10° E visible
10 Oct 8.9 01:20:28 10° NW 01:29:57 79° SW 01:31:34 65° SSE visible
10 Oct 10.9 03:27:26 10° W 03:29:53 16° W 03:29:53 16° W visible
11 Oct 8.9 00:58:47 10° NW 01:08:15 82° SW 01:11:22 50° SE visible
11 Oct 10.7 03:05:30 10° W 03:09:41 20° WSW 03:09:41 20° WSW visible
12 Oct 9.0 00:37:06 10° NW 00:46:34 86° SW 00:51:16 36° SE visible
12 Oct 10.5 02:43:36 10° WNW 02:49:36 24° WSW 02:49:36 24° WSW visible
13 Oct 9.0 00:15:25 10° NW 00:24:52 89° SW 00:31:17 25° SE visible
13 Oct 10.4 02:21:44 10° WNW 02:29:05 26° SW 02:29:38 26° SW visible
13 Oct 9.0 23:53:44 10° NW 00:03:11 87° NE 00:11:26 16° SE visible
14 Oct 10.3 01:59:52 10° WNW 02:07:28 28° SW 02:09:47 25° SSW visible
14 Oct 9.0 23:32:03 10° NW 23:41:29 84° NE 23:51:10 10° SE visible
